Terminal Aerodrome Forecast
Issued by NWS Charleston, WV

Current Version | Previous Version | Graphics & Text | Print | Product List | Glossary On
Versions: 1 2 3 4 5 6 7 8 9 10 11 12 13 14 15 16 17 18 19 20 21
000
FTUS41 KRLX 251728
TAFBKW
TAF
KBKW 251728Z 2518/2618 VRB03KT P6SM SCT040
      TEMPO 2518/2522 BKN040
     FM260400 VRB03KT 6SM HZ FEW045
     FM261600 26005KT P6SM SCT035=

USA.gov is the U.S. government's official web portal to all federal, state and local government web resources and services.